Showing default

COSMOS 2582, 62903

Orbit data source: Space-Track

COSMOS 2582, 62903 is a payload satellite owned by MO RF (CIS) in LEO that was launched on Wed, 05 Feb 2025 UTC via a SOYUZ-2-1V launch vehicle from the Plesetsk Missile And Space Complex (PKMTR). Payload-class satellites include a variety of spacecraft equipped with specific instruments for various scientific and technological missions. These include communications satellites like Starlink; space stations such as the ISS; scientific satellites like the Hubble; Earth observation satellites from companies like Planet Labs, Umbra, and HawkEye 360; GPS; miniature CubeSats for education and research; and military/defense satellites.

Loading next visibility...
Identifier
62903, 2025-026B
Orbit
LEO
Country
Flag of CISCIS
Related business
Manufacturer
VNIIEM
Mission
Operational Defense Imaging
Bus & Motor
EMKA, Unknown motor
Mass
~500 kg wet, 500 kg dry
Launch date (UTC)
2025-02-05 (1 year ago)
Launch vehicle
SOYUZ-2-1V
Launch site
Plesetsk Missile And Space Complex (PKMTR)
Object type
Payload
Rocket body
Debris
Shape & HBR
Cyl + 2 Pan, 0.8 m
Radar Cross Section
3.727 m², Medium (>0.1 m² and < 1m²)

Expand to show TLE details & history
Last TLE update: 21 hours ago

TLE from 21 hours ago
0 COSMOS 2582
1 62903U 25026B   26033.74151652  .00001712  00000-0  15597-3 0  9991
2 62903  81.9944 211.6195 0010466 137.5219 222.6812 14.94588524 54122
Epoch: 2026-02-02T17:47Z
TLE epoch observation values (Epoch: 2026-02-02T17:47:47.027Z)
Latitude
-0.00006°
Longitude
171.7411°
Altitude
592.049 km
Speed
7.561 km/s
True Right ascension
14h 06m 28s
True Declination
0° 00' 00"
Sunlit
Object was in daylight at epoch
Visualization orbit readout
Latitude
Unknown
Longitude
Unknown
Altitude
Unknown
Speed
Unknown
Apparent Right ascension
Unknown
Apparent Declination
Unknown
Sunlit
N/A
Visualization observer readout
Local Sidereal Time
17:04:25
Azimuth
Unknown
Elevation
Unknown
Doppler factor
Unknown
Orbital elements
Apogee altitude
587.96 km
Perigee altitude
573.393 km
Semi-major axis
6,958.813 km
Eccentricity
0.00105
Inclination
81.9944°
RAAN
211.6195°
Arg. of periapsis
137.5219°
True anomaly
222.59997°
Mean anomaly
222.6812°
Eccentric anomaly
222.64058°
Mean motion
3.73887 °/min
Orbital period
96.29 mins
BSTAR
0.00015597
Loading maneuver chart data...
Computing Atmospheric mass density...
Loading historical data...
Loading historical data...
Loading historical data...
Loading historical data...
Loading historical data...
Loading historical data...
Loading historical data...

Documentation

Showing up to 5 results
|